Weather in Dongeradeel

Netherlands     53°23′01″N   6°03′21″E
temp.,
°C
wind,
m/s
gust,
m/s
humid.,
%
clouds,
%
prec.,
mm/h
press.,
hPa
HPBL,
m
20 april, tue
tue2023:00+9e45885 0.0 102149
02:00+9ene338661 0.0 102031
05:00+9ne239099 0.0 101932
08:00+8ene447988 0.0 101984
11:00+8ene45780 0.0 1019124
14:00+8ne45770 0.0 101991
17:00+9ne45740 0.0 101891
20:00+9ne45700 0.0 101867
21 april, wed
wed2123:00+9ne33681 0.0 101832
02:00+9nne116893 0.0 101810
05:00+9nnw4470100 0.0 101744
08:00+8n8992100 0.0 1018506
11:00+7n897243 0.0 1020823
14:00+7nnw910665 0.0 10201059
17:00+7n11116542 0.0 10211279
20:00+7nnw11125735 0.0 10221410
22 april, thu
thu2223:00+7nnw11125967 0.0 10221539
02:00+7nnw11136234 0.0 10221590
05:00+7nnw111367100 0.1 10221582
08:00+7nnw11136666 0.2 10231607
11:00+7nnw10126768 0.1 10251525
14:00+7nw9117157 0.3 10251175
17:00+8nw910765 0.1 10261004
20:00+8nw910805 0.1 1026890
23 april, fri
fri2323:00+8nw1011825 0.0 1027899
02:00+8nw1011834 0.0 1027828
05:00+8nnw1011825 0.0 1027820
08:00+8nnw1011815 0.0 1028826
11:00+8nnw89803 0.0 1029748
14:00+8nnw67795 0.0 1029655
17:00+8nnw66775 0.0 1029625
20:00+8nnw677755 0.0 1029636
24 april, sat
sat2423:00+8nnw567895 0.0 1029668
02:00+8nnw6779100 0.0 1029649
05:00+8nnw7980100 0.0 1028616
08:00+8nnw7983100 0.0 1028615
11:00+8nw7982100 0.0 1028562
14:00+8nw798484 0.0 1028530
17:00+8nnw69895 0.0 1028610
20:00+8nnw68835 0.0 1028621